CW6261 Weather Reports


time (UTC)temp
F
wind
direction
speed
knots
gust
knots
rain 1hr
in
rain 24hr
in
rain mn
in
humidity
%
barometer
mb
20260506221703 60 26 2.6 5.2 0.00 0.00 0.00 82 101.1
20260506220702 60 47 4.3 7.8 0.00 0.00 0.00 82 101.1
20260506220202 60 51 2.6 5.2 0.00 0.00 0.00 83 101.1
20260506215203 60 216 1.7 7.8 0.00 0.00 0.00 81 101.1
20260506214202 61 346 2.6 7.8 0.00 0.00 0.00 81 101.1
20260506213702 60 25 1.7 7.8 0.00 0.00 0.00 81 101.1
20260506213203 61 282 4.3 7.0 0.00 0.00 0.00 80 101.1
20260506212702 61 5 3.5 8.7 0.00 0.00 0.00 79 101.1
20260506212202 61 52 0.0 7.0 0.00 0.00 0.00 79 101.1
20260506211702 61 344 3.5 5.2 0.00 0.00 0.00 79 101.1
20260506211203 61 341 3.5 4.3 0.00 0.00 0.00 80 101.1
20260506210202 62 17 1.7 5.2 0.00 0.00 0.00 79 101.1
20260506205702 61 59 0.9 8.7 0.00 0.00 0.00 80 101.1
20260506205202 62 66 1.7 9.6 0.00 0.00 0.00 78 101.1
20260506204702 61 48 1.7 5.2 0.00 0.00 0.00 80 101.1
20260506204202 61 19 1.7 7.8 0.00 0.00 0.00 80 101.1
20260506203702 61 353 4.3 7.8 0.00 0.00 0.00 80 101.1
20260506203202 61 252 4.3 6.1 0.00 0.00 0.00 80 101.1
20260506202702 63 343 5.2 10.4 0.00 0.00 0.00 78 101.1
20260506201702 62 336 3.5 7.0 0.00 0.00 0.00 79 101.1
20260506201202 63 353 2.6 8.7 0.00 0.00 0.00 80 101.1
20260506195702 64 33 5.2 10.4 0.00 0.00 0.00 77 101.1
20260506195202 64 26 3.5 11.3 0.00 0.00 0.00 76 101.1
20260506194702 65 290 4.3 6.1 0.00 0.00 0.00 77 101.1
20260506194202 65 13 3.5 9.6 0.00 0.00 0.00 77 101.1
20260506193701 66 10 3.5 9.6 0.00 0.00 0.00 76 101.1
20260506192702 66 346 2.6 4.3 0.00 0.00 0.00 78 101.1
20260506192202 66 47 3.5 6.1 0.00 0.00 0.00 78 101.1
20260506191702 67 73 3.5 7.0 0.00 0.00 0.00 77 101.1
20260506191202 67 1 1.7 7.0 0.00 0.00 0.00 77 101.1
20260506190702 68 133 1.7 5.2 0.00 0.00 0.00 77 101.1
20260506190202 69 0 7.0 7.8 0.00 0.00 0.00 75 101.1
20260506185702 69 43 4.3 6.1 0.00 0.00 0.00 76 101.1
20260506184702 70 85 0.9 9.6 0.00 0.00 0.00 74 101.1
20260506184202 70 41 2.6 9.6 0.00 0.00 0.00 74 101.1
20260506183702 70 21 3.5 7.8 0.00 0.00 0.00 75 101.1
20260506182702 70 99 3.5 4.3 0.00 0.00 0.00 74 101.0
20260506182202 70 340 3.5 5.2 0.00 0.00 0.00 76 101.0
20260506181703 70 69 1.7 7.0 0.00 0.00 0.00 76 101.0
20260506181202 69 20 3.5 6.1 0.00 0.00 0.00 76 101.0
20260506180702 69 64 2.6 3.5 0.00 0.00 0.00 76 101.0
20260506180202 68 68 1.7 7.0 0.00 0.00 0.00 77 101.1
20260506175702 67 18 0.9 1.7 0.00 0.00 0.00 78 101.1
20260506174702 68 102 1.7 5.2 0.00 0.00 0.00 77 101.1
20260506174202 68 11 2.6 3.5 0.00 0.00 0.00 78 101.1
20260506173702 66 14 0.9 1.7 0.00 0.00 0.00 79 101.1
20260506172702 65 119 3.5 3.5 0.00 0.00 0.00 79 101.0
20260506172203 65 37 0.9 2.6 0.00 0.00 0.00 79 101.0
20260506171702 65 123 1.7 4.3 0.00 0.00 0.00 80 101.0
20260506171202 64 29 3.5 6.1 0.00 0.00 0.00 82 101.0
20260506170702 64 33 1.7 4.3 0.00 0.00 0.00 82 101.0
20260506170202 63 101 0.9 3.5 0.00 0.00 0.00 85 101.1
20260506165702 63 11 1.7 4.3 0.00 0.00 0.00 84 101.1
20260506165203 62 101 1.7 4.3 0.00 0.00 0.00 85 101.1
20260506164704 62 127 0.9 3.5 0.00 0.00 0.00 86 101.1
20260506163702 61 42 1.7 5.2 0.00 0.00 0.00 89 101.1
20260506163202 61 125 2.6 4.3 0.00 0.00 0.00 90 101.1
20260506162702 61 18 3.5 7.8 0.00 0.00 0.00 93 101.1
20260506161702 60 72 0.9 5.2 0.00 0.00 0.00 94 101.2
20260506161202 60 96 2.6 14.8 0.00 0.00 0.00 94 101.2
20260506160702 60 51 2.6 8.7 0.00 0.00 0.00 94 101.2
20260506160202 60 33 5.2 6.1 0.00 0.00 0.00 95 101.1
20260506155703 61 32 3.5 13.0 0.00 0.00 0.00 94 101.1
20260506155203 61 67 3.5 8.7 0.00 0.00 0.00 94 101.1
20260506154702 62 14 4.3 8.7 0.00 0.00 0.00 93 101.1
20260506154202 63 37 3.5 13.0 0.00 0.00 0.00 93 101.1
20260506153702 63 30 6.1 11.3 0.00 0.00 0.00 92 101.1
20260506153202 63 353 1.7 6.1 0.00 0.00 0.00 92 101.0
20260506152702 63 50 1.7 9.6 0.00 0.00 0.00 92 101.0
20260506152202 64 36 7.0 10.4 0.00 0.00 0.00 92 101.0
20260506151702 64 33 0.9 8.7 0.00 0.00 0.00 92 101.0
20260506151202 64 48 1.7 7.8 0.00 0.00 0.00 92 101.0
20260506150702 64 291 2.6 8.7 0.00 0.00 0.00 92 101.0
20260506150203 65 42 7.0 13.0 0.00 0.00 0.00 91 101.0
20260506145703 66 41 2.6 7.8 0.00 0.00 0.00 91 101.0
20260506145202 67 49 6.1 8.7 0.00 0.00 0.00 91 101.0
20260506144702 68 36 4.3 10.4 0.00 0.00 0.00 90 101.0
20260506144202 70 96 0.0 8.7 0.00 0.00 0.00 87 101.0
20260506143202 77 44 0.0 1.7 0.00 0.00 0.00 86 101.0
20260506142701 76 196 1.7 1.7 0.00 0.00 0.00 86 101.0
20260506141203 75 266 0.9 3.5 0.00 0.00 0.00 90 101.0
20260506140203 75 198 1.7 2.6 0.00 0.00 0.00 90 101.0
20260506135703 75 183 1.7 1.7 0.00 0.00 0.00 90 101.0
20260506135202 75 204 2.6 4.3 0.00 0.00 0.00 91 101.0
20260506134703 74 190 2.6 5.2 0.00 0.00 0.00 91 101.0
20260506133702 74 251 0.9 1.7 0.00 0.00 0.00 92 101.0
20260506133202 74 195 1.7 2.6 0.00 0.00 0.00 93 100.9
20260506132202 74 215 0.0 4.3 0.00 0.00 0.00 93 100.9
20260506131702 73 127 1.7 4.3 0.00 0.00 0.00 93 100.9
20260506131202 73 168 3.5 3.5 0.00 0.00 0.00 93 100.9
20260506130202 73 175 4.3 4.3 0.00 0.00 0.00 94 100.9
20260506125702 73 171 2.6 4.3 0.00 0.00 0.00 95 100.9
20260506125202 73 242 0.9 3.5 0.00 0.00 0.00 95 100.9
20260506124703 73 183 1.7 3.5 0.00 0.00 0.00 96 100.9
20260506124202 73 73 0.9 2.6 0.00 0.00 0.00 96 100.9
20260506123702 72 12 0.9 2.6 0.00 0.00 0.00 96 100.9
20260506123202 72 231 0.9 2.6 0.00 0.00 0.00 96 100.9
20260506122702 73 186 2.6 3.5 0.00 0.00 0.00 96 100.9
20260506122203 72 296 0.9 3.5 0.00 0.00 0.00 96 100.9
20260506121702 73 195 1.7 2.6 0.00 0.00 0.00 96 100.9
20260506121202 73 167 1.7 3.5 0.00 0.00 0.00 97 100.9
20260506120703 73 158 1.7 2.6 0.00 0.00 0.00 97 100.9
20260506120202 73 155 0.0 1.7 0.00 0.00 0.00 96 100.9
20260506115202 73 232 0.0 1.7 0.00 0.00 0.00 96 100.9
20260506114702 73 227 0.9 2.6 0.00 0.00 0.00 96 100.9
20260506114202 73 185 0.9 2.6 0.00 0.00 0.00 96 100.9
20260506113703 73 184 1.7 2.6 0.00 0.00 0.00 96 100.9
20260506113202 73 223 0.9 3.5 0.00 0.00 0.00 96 100.9
20260506112202 73 250 1.7 1.7 0.00 0.00 0.00 96 100.9
20260506111702 73 215 1.7 3.5 0.00 0.00 0.00 96 100.9
20260506111202 73 284 0.0 1.7 0.00 0.00 0.00 96 100.9
20260506110702 73 316 0.9 2.6 0.00 0.00 0.00 96 100.9
20260506110202 73 256 0.9 3.5 0.00 0.00 0.00 95 100.9
20260506105702 73 116 0.9 1.7 0.00 0.00 0.00 95 100.9
20260506105203 73 254 0.9 2.6 0.00 0.00 0.00 95 100.9
20260506104702 73 247 1.7 3.5 0.00 0.00 0.00 95 100.8
20260506104202 73 228 1.7 2.6 0.00 0.00 0.00 95 100.8
20260506103702 73 249 0.9 2.6 0.00 0.00 0.00 94 100.8
20260506103202 73 313 0.9 3.5 0.00 0.00 0.00 94 100.8
20260506102702 74 237 2.6 3.5 0.00 0.00 0.00 93 100.8
20260506102202 74 257 0.9 3.5 0.00 0.00 0.00 93 100.8
20260506101702 74 253 1.7 6.1 0.00 0.00 0.00 93 100.8
20260506101202 74 188 2.6 4.3 0.00 0.00 0.00 92 100.8
20260506100702 74 222 0.9 5.2 0.00 0.00 0.00 92 100.8
20260506100202 74 220 3.5 7.0 0.00 0.00 0.00 91 100.8
20260506095702 74 180 1.7 3.5 0.00 0.00 0.00 91 100.8
20260506095202 74 206 1.7 4.3 0.00 0.00 0.00 91 100.8
20260506094702 74 147 0.9 4.3 0.00 0.00 0.00 90 100.8
20260506094202 74 213 0.9 3.5 0.00 0.00 0.00 90 100.8
20260506093202 74 202 1.7 4.3 0.00 0.00 0.00 90 100.8
20260506092704 74 251 0.9 6.1 0.00 0.00 0.00 90 100.7
20260506092202 74 216 2.6 7.0 0.00 0.00 0.00 90 100.7
20260506091702 74 182 1.7 4.3 0.00 0.00 0.00 90 100.7
20260506091202 75 238 1.7 3.5 0.00 0.00 0.00 89 100.7
20260506090702 75 189 4.3 5.2 0.00 0.00 0.00 89 100.7
20260506090202 74 167 4.3 6.1 0.00 0.00 0.00 90 100.8
20260506085202 74 201 4.3 7.0 0.00 0.00 0.00 90 100.8
20260506084702 74 140 0.9 5.2 0.00 0.00 0.00 90 100.8
20260506084202 74 210 1.7 7.0 0.00 0.00 0.00 90 100.8
20260506083202 75 253 2.6 6.1 0.00 0.00 0.00 89 100.8
20260506082702 75 165 3.5 4.3 0.00 0.00 0.00 89 100.7
20260506081702 75 249 2.6 5.2 0.00 0.00 0.00 89 100.7
20260506081201 75 182 3.5 5.2 0.00 0.00 0.00 89 100.7
20260506080702 75 170 3.5 8.7 0.00 0.00 0.00 89 100.7
20260506080202 75 193 3.5 5.2 0.00 0.00 0.00 89 100.8
20260506073202 75 204 4.3 5.2 0.00 0.00 0.00 88 100.8
20260506072702 75 190 6.1 6.1 0.00 0.00 0.00 88 100.8
20260506072203 75 201 1.7 7.8 0.00 0.00 0.00 88 100.8
20260506071702 75 217 4.3 6.1 0.00 0.00 0.00 88 100.8
20260506071202 75 184 4.3 7.0 0.00 0.00 0.00 88 100.8
20260506070702 75 225 5.2 7.8 0.00 0.00 0.00 88 100.8
20260506070202 75 251 2.6 8.7 0.00 0.00 0.00 88 100.8
20260506062202 75 181 5.2 9.6 0.00 0.00 0.00 88 100.8
20260506061702 75 179 3.5 6.1 0.00 0.00 0.00 88 100.8
20260506061202 75 210 3.5 10.4 0.00 0.00 0.00 88 100.8
20260506060703 75 215 4.3 7.8 0.00 0.00 0.00 89 100.8
20260506051202 75 188 3.5 9.6 0.00 0.00 0.00 89 100.8
20260506050703 75 199 2.6 7.0 0.00 0.00 0.00 89 100.8
20260506050202 75 173 2.6 7.8 0.00 0.00 0.00 89 100.7
20260506044702 75 177 0.9 4.3 0.00 0.00 0.00 89 100.7
20260506044202 75 180 1.7 10.4 0.00 0.00 0.00 89 100.7
20260506043702 75 214 4.3 6.1 0.00 0.00 0.00 89 100.7
20260506042702 75 157 2.6 7.8 0.00 0.00 0.00 88 100.8
20260506042202 75 172 1.7 4.3 0.00 0.00 0.00 88 100.8
20260506041702 75 173 0.9 6.1 0.00 0.00 0.00 88 100.8
20260506041202 75 175 1.7 3.5 0.00 0.00 0.00 88 100.8
20260506040202 75 179 2.6 4.3 0.00 0.00 0.00 87 100.7
20260506035702 76 205 0.0 3.5 0.00 0.00 0.00 87 100.7
20260506035204 76 177 1.7 7.0 0.00 0.00 0.00 87 100.7
20260506034702 76 169 1.7 8.7 0.00 0.00 0.00 87 100.7
20260506034202 76 188 1.7 7.0 0.00 0.00 0.00 86 100.7
20260506033204 76 194 2.6 4.3 0.00 0.00 0.00 86 100.7
20260506032203 76 167 2.6 8.7 0.00 0.00 0.00 85 100.7
20260506031702 77 171 0.9 3.5 0.00 0.00 0.00 85 100.7
20260506031202 77 163 4.3 8.7 0.00 0.00 0.00 84 100.7
20260506030702 77 209 4.3 7.0 0.00 0.00 0.00 84 100.7
20260506030202 77 157 0.0 3.5 0.00 0.00 0.00 83 100.7
20260506025704 77 268 1.7 4.3 0.00 0.00 0.00 82 100.7
20260506025203 77 205 1.7 5.2 0.00 0.00 0.00 82 100.7
20260506024702 77 242 0.9 3.5 0.00 0.00 0.00 81 100.7
20260506024202 77 213 2.6 4.3 0.00 0.00 0.00 81 100.7
20260506023702 78 212 1.7 5.2 0.00 0.00 0.00 80 100.7
20260506023203 78 180 1.7 3.5 0.00 0.00 0.00 80 100.7
20260506022703 78 203 2.6 3.5 0.00 0.00 0.00 80 100.6
20260506022202 78 185 0.9 6.1 0.00 0.00 0.00 79 100.6
20260506021702 78 196 2.6 4.3 0.00 0.00 0.00 79 100.6
20260506021203 78 174 0.9 2.6 0.00 0.00 0.00 79 100.6
20260506020702 78 186 3.5 4.3 0.00 0.00 0.00 79 100.6
20260506020203 78 187 1.7 5.2 0.00 0.00 0.00 79 100.6
20260506015702 78 164 0.0 5.2 0.00 0.00 0.00 79 100.6
20260506015202 78 182 3.5 5.2 0.00 0.00 0.00 78 100.6
20260506014202 79 177 1.7 3.5 0.00 0.00 0.00 78 100.6
20260506013702 79 183 0.9 5.2 0.00 0.00 0.00 78 100.6
20260506012702 79 225 1.7 3.5 0.00 0.00 0.00 77 100.6
20260506011202 80 185 1.7 4.3 0.00 0.00 0.00 76 100.6
20260506010702 80 204 3.5 5.2 0.00 0.00 0.00 76 100.6
20260506010203 80 196 1.7 5.2 0.00 0.00 0.00 75 100.6
20260506005702 80 200 0.9 4.3 0.00 0.00 0.00 74 100.6
20260506005202 81 171 0.0 3.5 0.00 0.00 0.00 73 100.6
20260506004203 81 198 2.6 3.5 0.00 0.00 0.00 71 100.6
20260506003703 81 238 2.6 4.3 0.00 0.00 0.00 70 100.5
20260506003202 81 225 1.7 4.3 0.00 0.00 0.00 69 100.5
20260506002702 81 225 1.7 5.2 0.00 0.00 0.00 69 100.5
20260506002202 81 247 3.5 5.2 0.00 0.00 0.00 69 100.5
20260506001702 81 181 4.3 5.2 0.00 0.00 0.00 69 100.5
20260506001203 82 235 1.7 4.3 0.00 0.00 0.00 69 100.5
20260506000702 82 227 2.6 5.2 0.00 0.00 0.00 69 100.5
20260506000204 81 231 1.7 3.5 0.00 0.00 0.00 69 100.5
20260505235703 82 190 7.0 7.0 0.00 0.00 0.00 69 100.5
20260505235202 82 201 5.2 7.0 0.00 0.00 0.00 69 100.5
20260505233703 82 229 1.7 6.1 0.00 0.00 0.00 69 100.5
20260505233202 82 189 5.2 7.0 0.00 0.00 0.00 69 100.5
20260505232202 82 221 2.6 7.0 0.00 0.00 0.00 69 100.5
20260505231202 82 109 1.7 5.2 0.00 0.00 0.00 68 100.5
20260505230703 82 198 3.5 8.7 0.00 0.00 0.00 68 100.5
20260505230202 82 198 1.7 9.6 0.00 0.00 0.00 68 100.5
20260505225701 82 199 3.5 3.5 0.00 0.00 0.00 67 100.5
20260505225202 83 227 3.5 6.1 0.00 0.00 0.00 66 100.5
20260505224702 83 217 3.5 5.2 0.00 0.00 0.00 65 100.5
20260505223702 83 250 1.7 7.0 0.00 0.00 0.00 65 100.5
20260505223202 83 200 3.5 5.2 0.00 0.00 0.00 65 100.5
20260505222702 82 207 2.6 5.2 0.00 0.00 0.00 65 100.5